Regional Weather Roundup
Issued by NWS

Home | Current Version | Previous Version | Text Only | Print | Product List | Glossary Off
Versions: 1 2 3 4 5 6 7 8 9 10 11 12 13 14 15 16 17 18 19 20 21 22 23 24 25 26 27 28 29 30 31 32 33 34 35 36 37 38 39 40 41 42 43 44 45 46 47 48 49 50

355
ASUS43 KOAX 302110
RWRNE

WEATHER ROUNDUP FOR NEBRASKA
NATIONAL WEATHER SERVICE OMAHA NE
400 PM CDT FRI SEP 30 2016

NOTES: SATELLITE DATA IS BEING USED TO AUGMENT CLOUD COVER ABOVE
       12000 FEET.
       "FAIR" INDICATES FEW OR NO CLOUDS BELOW 12,000 FEET WITH NO
       SIGNIFICANT WEATHER AND/OR OBSTRUCTIONS TO VISIBILITY.

  * THESE STATIONS DO NOT REPORT WEATHER SUCH AS RAIN...SNOW OR FOG.

NEZ001>004-019>022-054>056-302200-
NEBRASKA PANHANDLE

CITY           SKY/WX    TMP DP  RH WIND       PRES   REMARKS
SCOTTSBLUFF    CLOUDY    68  49  50 SE9       30.13F
ALLIANCE       CLOUDY    69  46  43 S12       30.13F
CHADRON        CLOUDY    75  49  39 SW10      30.06F
KIMBALL        LGT RAIN  68  49  50 N3        30.18F
SIDNEY         CLOUDY    71  44  37 SE10      30.16F
$$

NEZ057>060-069>072-079>082-302200-
SOUTHWEST NEBRASKA

CITY           SKY/WX    TMP DP  RH WIND       PRES   REMARKS
NORTH PLATTE   MOSUNNY   69  47  45 SE8       30.16F
IMPERIAL       SUNNY     72  44  36 SE16      30.15F
LEXINGTON      PTSUNNY   69  45  41 SE10      30.18S
MCCOOK         MOSUNNY   71  46  40 SE14      30.15F
OGALLALA       CLOUDY    75  45  35 S13       30.15S
$$

NEZ005>010-023>029-035>040-094-302200-
NORTH CENTRAL NEBRASKA

CITY           SKY/WX    TMP DP  RH WIND       PRES   REMARKS
VALENTINE      CLOUDY    70  44  39 S16       30.13F
AINSWORTH      MOSUNNY   68  47  45 S13       30.16F
BROKEN BOW     MOSUNNY   67  47  48 SE9       30.17F
O`NEILL        MOSUNNY   71  39  31 SE9G18    30.18F
ORD            CLOUDY    68  42  38 SE8       30.18F
THEDFORD       CLOUDY    71  47  43 S12       30.17F
$$

NEZ041-046>049-061>064-073>077-083>087-302200-
SOUTH CENTRAL NEBRASKA

CITY           SKY/WX    TMP DP  RH WIND       PRES   REMARKS
AURORA         MOSUNNY   70  43  38 S3        30.18F
HASTINGS       MOSUNNY   70  41  34 E7        30.19F
HEBRON         MOSUNNY   73  45  37 SE6       30.17F
HOLDREGE       PTSUNNY   68  43  40 SE10      30.17F
KEARNEY *      MOSUNNY   70  43  37 S7        30.17F
YORK           CLOUDY    70  45  40 S5        30.18F
$$

NEZ011>018-030>034-042>045-302200-
NORTHEAST NEBRASKA

CITY           SKY/WX    TMP DP  RH WIND       PRES   REMARKS
NORFOLK        SUNNY     72  41  32 VRB6      30.18F
ALBION         MOSUNNY   70  42  36 SE3       30.19F
BLAIR          SUNNY     74  47  38 N3        30.18S
FREMONT        SUNNY     73  44  34 NE8       30.19F
TEKAMAH        SUNNY     76  41  28 E8        30.17F
WAYNE          SUNNY     72  47  40 SE10      30.20F
$$

NEZ050>053-065>068-078-088>093-302200-
SOUTHEAST NEBRASKA

CITY           SKY/WX    TMP DP  RH WIND       PRES   REMARKS
LINCOLN        SUNNY     74  44  34 NE9       30.18F
OMAHA EPPLEY   MOSUNNY   76  45  33 NE3       30.17F
BEATRICE       SUNNY     73  45  37 CALM      30.17F
FALLS CITY     SUNNY     75  45  34 NE8       30.14F
NEBRASKA CITY  SUNNY     74  35  24 NE10      30.16F
PLATTSMOUTH    SUNNY     74  37  25 NE9       30.17F
$$

NEZ044-045-051>053-067-302200-
OMAHA AREA

CITY           SKY/WX    TMP DP  RH WIND       PRES   REMARKS
OMAHA EPPLEY   MOSUNNY   76  45  33 NE3       30.17F
BLAIR          SUNNY     74  47  38 N3        30.18S
FREMONT        SUNNY     73  44  34 NE8       30.19F
MILLARD        SUNNY     74  46  37 CALM      30.17F
OFFUTT AFB     SUNNY     75  46  35 NE6       30.16F
PLATTSMOUTH    SUNNY     74  37  25 NE9       30.17F
WAHOO          FAIR      74  42  32 E5        30.18F
$$




USA.gov is the U.S. government's official web portal to all federal, state and local government web resources and services.